Location: Antist
(43.1184°N, 0.1270°E)
Time: 12:57:31
(UTC+00:00)

STARLINK-1078 - Pass Details

Date: 19 January 2020
Orbit: 349 x 351 km, 53.0° (Epoch: 21 February)

Event Time Altitude Azimuth Distance (km) Brightness Sun altitude
Rises 18:07:14 0° 257° (WSW) 2,160 8.7 -13.2°
Reaches altitude 10° 18:09:23 10° 269° (W) 1,320 6.9 -13.6°
Maximum altitude 18:12:02 30° 333° (NNW) 663 4.1 -14.1°
Enters shadow 18:13:28 20° 22° (NNE) 902 4.4 -14.3°
